Location: Gez
(43.0167°N, 0.1000°W)
Time: 09:08:32
(UTC+00:00)

Ariane Rocket - Pass Details

Date: 08 August 2025
Orbit: 754 x 764 km, 98.4° (Epoch: 14 April)

Event Time Altitude Azimuth Distance (km) Brightness Sun altitude
Rises 19:18:56 0° 83° (E) 3,208 5.7 -1.9°
Enters shadow 20:24:47 -63° 166° (SSE) 12,183 9.0 -12.3°
Maximum altitude 21:00:18 39° 69° (ENE) 1,126 3.6 -17.3°
